SCP
0 0 0 0 0 0 0 0 0 0 0 0 0 0 0 0 0 0 0 0 0 0 0 0 0 0 0 0 0 0 0 0 0 0 0 0 0 0 0 1 0 0 0
0 0 0 0 0 0 0 0 0 0 0 0 0 0 0 0 0 0 0 0 0 0 0 0 0 0 0 0 0 0 0 0 0 0 0 0 0 0 0 1 1 1 1
0 0 0 0 0 0 0 0 0 0 0 0 0 0 0 0 0 0 0 0 0 0 0 0 0 0 0 0 0 0 0 0 0 0 0 0 0 0 0 1 1 1 1
0 0 0 0 0 0 0 0 0 0 0 0 0 0 0 0 0 0 0 0 0 0 0 0 0 0 0 0 0 0 0 0 0 0 0 0 0 0 0 0 0 1 1
0 0 0 0 0 0 0 0 0 0 0 0 0 0 0 0 0 0 0 0 0 0 0 0 0 0 0 0 0 0 0 0 0 0 0 0 0 0 0 0 0 0 1
0 0 0 0 0 0 0 0 0 0 0 0 0 0 0 0 0 0 0 0 0 0 0 0 0 0 0 0 0 0 0 0 0 0 0 0 0 0 0 0 0 0 0
0 0 0 0 0 0 0 0 0 0 0 0 0 0 0 0 0 0 0 0 0 0 0 0 0 0 0 0 0 0 0 0 0 0 0 0 0 0 0 0 0 0 0
0 0 0 0 0 0 0 0 0 0 0 0 0 0 0 0 0 0 0 0 0 0 0 0 0 0 0 0 0 0 0 0 0 0 0 0 0 0 0 0 0 0 0
0 0 0 0 0 0 0 0 0 0 0 0 0 0 0 0 0 0 0 0 0 0 0 0 0 0 0 0 0 0 0 0 0 0 0 0 0 0 0 0 0 0 0
0 0 0 0 0 0 0 0 0 0 0 0 0 0 0 0 0 0 0 0 0 0 0 0 0 0 0 0 0 0 0 0 0 -0 0 0 0 0 0 0 0 0 0
0 0 0 0 0 0 0 0 0 0 0 0 0 0 0 0 0 0 0 0 0 0 0 0 0 0 0 0 0 0 0 0 0 -0 0 0 0 0 0 0 0 0 0
0 0 0 0 0 0 0 0 0 0 0 0 0 0 0 0 0 0 0 0 0 0 0 0 0 0 0 0 0 0 0 0 0 0 0 0 0 0 0 0 0 0 0
0 0 0 0 0 0 0 0 0 0 0 0 0 0 0 0 0 0 0 0 0 0 0 0 0 0 0 0 0 0 0 0 0 0 0 0 0 0 0 0 0 0 0
0 0 0 0 0 0 0 0 0 0 0 0 0 0 0 0 0 0 0 0 0 -0 -0 0 0 0 0 0 0 0 0 0 0 0 0 0 0 0 0 0 0 0 0
0 0 0 0 0 0 0 0 0 0 0 0 0 0 0 0 0 0 0 0 0 -0 0 0 0 0 -0 0 0 0 0 0 0 0 0 0 0 0 0 0 0 0 0
0 0 0 0 0 0 0 0 0 0 0 0 0 0 0 0 0 0 0 0 0 0 0 0 0 0 0 0 -0 0 0 0 0 0 0 0 0 0 0 0 0 0 0
0 0 0 0 0 0 0 0 0 0 0 0 0 0 0 0 0 0 0 0 0 0 0 0 0 0 0 0 0 0 0 0 0 0 0 0 0 0 0 0 0 0 0
0 0 0 0 0 0 0 0 0 0 0 0 0 0 0 0 0 0 0 0 0 0 0 0 0 0 0 0 0 0 0 0 0 0 0 0 0 0 0 0 0 0 1
0 0 0 0 0 0 0 0 0 0 0 0 0 0 0 0 0 0 0 0 0 0 0 0 0 0 0 0 0 0 0 0 0 0 0 0 0 0 0 0 0 0 1
0 0 0 0 0 0 0 0 0 0 0 0 0 0 0 0 0 0 0 0 0 0 0 0 0 0 0 0 0 0 0 0 0 0 0 0 0 0 0 0 0 0 0
0 0 0 0 0 0 0 0 0 0 0 0 0 0 0 0 0 0 0 0 0 0 0 0 0 0 0 0 0 0 0 0 0 0 0 0 0 0 0 0 0 0 0
0 0 0 0 0 0 0 0 0 0 0 0 0 0 0 0 0 0 0 0 0 0 0 0 0 0 0 0 0 0 0 0 0 0 0 0 0 0 0 0 0 0 0
0 0 0 0 0 0 0 0 0 0 0 0 0 0 0 0 0 0 0 0 0 0 0 0 0 0 0 0 0 0 0 0 0 0 0 0 0 0 0 0 0 0 0
0 0 0 0 0 0 0 0 0 0 0 0 0 0 0 0 0 0 0 0 0 0 0 0 0 0 0 0 0 0 0 0 0 0 0 0 0 0 0 0 0 0 0
0 0 0 0 0 0 0 0 0 0 0 0 0 0 0 0 0 0 0 0 0 0 0 0 0 0 0 0 0 0 0 0 0 0 0 0 0 0 0 0 0 0 0
0 0 0 0 0 0 0 0 0 0 0 0 0 0 0 0 0 0 0 0 0 0 0 0 0 0 0 0 0 0 0 0 0 0 0 0 0 0 0 0 0 0 0
Wind_Speed
5 6 15 17 18 19 20 20 21 22 23 23 24 24 25 25 25 25 26 26 26 26 26 26 26 27 27 27 27 27 27 27 27 27 28 27 25 24 22 20 17 11 15
5 8 15 16 17 18 19 19 20 21 22 22 23 23 24 24 24 24 25 25 26 26 26 26 26 26 26 27 27 27 27 27 27 27 27 23 23 24 24 23 21 14 18
6 9 11 15 16 17 18 19 20 20 21 22 22 23 23 23 23 23 24 24 25 25 25 26 26 26 26 26 26 26 27 27 27 28 25 14 16 23 24 23 23 22 21
7 8 10 14 15 16 17 18 19 20 21 21 22 22 22 23 23 23 23 23 24 24 24 25 25 25 26 26 27 27 27 27 27 26 15 14 13 21 23 23 23 23 23
7 8 9 13 14 16 17 18 19 19 20 21 21 22 22 22 22 22 23 23 24 24 24 24 24 25 25 25 26 27 27 27 27 21 14 13 11 19 22 22 23 23 23
7 7 7 12 13 15 16 17 18 18 19 20 20 21 22 22 22 22 22 23 23 24 24 24 24 24 24 25 25 26 26 26 22 12 12 13 11 19 22 21 21 23 23
6 5 6 10 12 13 14 16 16 17 18 19 19 21 21 21 21 21 22 23 23 24 24 24 25 25 25 25 25 25 25 25 17 12 12 12 13 22 22 21 21 22 23
5 5 4 8 10 10 11 13 14 15 17 17 18 20 21 21 21 21 22 23 24 24 24 25 25 25 25 26 25 25 24 23 17 15 13 11 17 23 23 22 22 23 23
5 5 4 5 6 9 10 11 13 14 15 17 17 19 20 20 21 22 22 24 24 25 26 26 26 26 27 26 25 25 25 25 15 10 14 10 20 24 24 23 23 23 23
5 5 4 5 5 5 5 10 12 13 14 16 17 19 20 19 19 21 20 23 25 25 26 26 26 28 28 26 26 26 26 21 9 11 8 13 25 26 25 24 24 24 24
6 5 4 5 4 5 5 8 9 11 12 13 12 17 15 8 8 11 17 23 24 25 26 26 27 27 27 24 26 27 22 8 10 9 8 19 26 26 26 26 25 25 25
6 4 4 4 4 4 5 4 3 4 5 5 5 7 5 6 7 11 18 22 23 24 23 25 26 24 19 10 16 21 8 10 9 8 11 25 28 28 28 28 27 26 26
6 4 4 3 3 4 3 3 2 2 3 4 5 6 5 5 5 6 5 9 10 14 9 13 13 9 10 10 10 10 10 10 7 8 12 27 29 29 29 29 29 28 27
6 5 4 2 3 3 3 3 3 2 2 3 4 5 4 3 4 5 4 6 5 5 6 6 6 9 10 11 12 12 12 10 9 9 12 28 30 31 31 30 30 30 28
6 5 4 2 3 2 2 2 3 3 2 3 3 4 5 4 4 5 5 5 6 5 6 6 7 9 9 10 10 13 13 13 13 13 11 26 31 32 32 31 31 31 29
6 5 4 2 2 1 2 2 2 2 3 2 3 4 4 4 4 5 5 5 5 5 5 6 8 8 8 8 10 11 13 13 13 14 13 17 28 32 33 32 31 31 30
7 5 4 2 1 1 2 2 3 2 2 2 2 3 4 4 5 5 5 5 5 5 7 6 8 7 8 9 10 11 11 12 14 15 16 14 15 25 31 32 31 30 29
7 5 4 1 1 1 2 3 2 2 2 2 2 2 4 5 5 4 4 5 6 6 6 6 6 6 7 8 9 9 10 11 14 16 16 16 14 15 20 30 31 30 28
7 6 5 3 1 1 2 2 3 2 2 2 1 2 3 4 5 4 4 5 6 5 5 8 7 7 8 9 9 9 8 9 12 16 18 19 17 17 15 22 29 28 26
7 6 5 4 2 1 1 2 3 2 2 2 2 2 3 3 5 5 5 6 6 5 6 6 8 8 7 8 12 12 9 10 11 12 16 15 16 19 16 15 13 14 21
8 6 5 3 2 1 1 1 2 3 3 3 2 3 4 4 5 5 5 5 6 6 7 8 8 9 8 7 9 11 10 9 11 11 11 12 16 17 15 13 9 7 8
9 8 6 4 3 1 1 1 2 3 3 4 3 3 4 5 6 7 6 5 6 6 8 8 8 8 10 7 8 13 13 12 9 11 11 13 14 12 15 15 12 9 7
9 8 6 5 3 2 1 1 3 3 3 3 3 3 4 5 6 6 6 6 6 6 7 8 8 9 10 9 6 7 10 13 14 10 11 12 12 12 12 11 12 10 10
9 8 7 5 4 3 2 2 3 3 3 4 3 4 5 5 6 6 6 6 6 6 7 8 8 7 10 10 8 6 8 10 12 15 10 9 13 13 12 12 12 11 10
10 9 7 6 5 4 3 3 3 4 4 3 4 5 5 5 6 6 6 6 6 6 7 8 8 8 7 9 9 9 10 10 10 10 14 14 11 10 10 11 11 10 10
10 9 7 6 6 5 4 4 4 4 5 5 6 5 4 4 5 6 7 6 7 7 7 8 8 10 9 9 8 8 10 10 10 9 11 13 13 12 11 11 11 10 9
Wind_Direction
31 32 20 18 21 23 24 25 26 26 26 25 23 22 21 19 18 16 15 13 11 10 9 7 6 4 2 1 358 356 354 352 351 350 344 338 338 340 342 344 343 333 333
40 36 25 22 24 25 27 27 27 27 25 24 22 21 19 18 16 14 13 11 9 7 6 4 3 1 359 358 356 353 351 349 348 347 341 338 340 338 342 346 343 337 333
56 46 25 25 28 28 29 28 27 26 24 22 20 18 16 15 14 12 11 9 7 5 3 1 359 357 355 353 352 350 348 347 345 343 341 338 336 333 336 340 340 338 336
67 56 30 30 31 31 30 28 26 24 22 19 18 15 13 12 11 10 9 7 5 2 0 358 356 353 351 349 347 345 344 343 342 341 340 332 330 327 329 334 336 335 334
77 72 36 34 34 32 30 28 25 22 19 17 15 13 10 8 7 7 6 4 2 359 358 355 353 350 348 346 343 341 339 338 338 339 329 325 320 320 323 327 330 331 330
78 82 53 38 36 33 30 26 23 20 16 14 12 10 7 5 4 4 3 1 359 356 354 352 350 348 345 343 340 337 335 334 336 329 323 317 314 315 317 320 325 327 325
82 83 73 46 36 31 28 24 20 17 13 11 10 7 4 2 1 0 0 358 355 353 351 349 347 345 343 340 337 335 333 331 330 326 316 309 308 311 313 316 321 322 321
90 77 75 52 37 29 26 21 15 12 10 7 6 5 1 360 358 358 358 355 352 350 349 346 344 343 341 338 335 334 333 330 326 317 308 302 308 311 312 314 317 317 316
90 77 68 58 31 17 17 18 8 8 6 3 4 3 360 358 356 355 356 351 349 348 346 344 342 342 339 337 336 334 333 329 327 309 309 315 309 307 308 310 311 311 311
105 83 56 62 41 16 2 5 3 4 3 1 2 0 0 357 353 350 351 346 346 346 344 342 342 340 339 339 337 334 332 331 318 315 314 307 304 304 304 305 306 307 306
111 94 70 54 38 13 354 2 0 359 359 0 359 357 358 348 344 344 343 344 344 343 341 341 341 339 340 337 333 331 333 323 316 309 302 300 301 302 303 303 303 302 301
106 88 78 59 40 19 1 357 345 351 355 351 357 355 348 348 337 346 342 340 342 339 341 338 338 341 337 329 327 330 321 314 311 306 306 306 304 303 301 299 298 297 296
111 93 83 74 57 29 356 345 333 334 350 344 355 350 352 347 335 343 338 335 335 336 337 332 335 331 326 325 320 318 315 315 310 307 306 304 301 299 297 296 294 293 291
120 114 92 74 73 40 2 328 321 340 345 335 346 348 355 339 337 340 333 329 330 327 326 329 327 321 320 319 317 315 316 315 311 307 299 301 301 299 296 293 291 289 287
132 125 112 87 67 39 341 318 341 333 335 328 339 346 355 347 340 337 328 325 323 323 327 325 317 316 316 313 313 316 314 311 307 302 302 301 300 297 295 291 288 286 283
136 128 111 82 53 14 350 339 320 318 314 328 339 347 353 357 338 330 321 318 315 320 321 314 313 313 310 308 311 312 310 306 303 303 302 302 299 296 293 290 286 283 281
133 130 126 141 65 11 355 328 312 293 316 328 339 343 355 355 332 327 314 313 312 316 315 311 308 306 310 313 311 308 306 304 303 302 300 296 293 292 290 288 284 281 278
143 145 137 155 11 12 345 312 293 294 326 323 341 336 354 338 325 320 311 308 309 314 310 307 303 313 310 307 305 304 303 302 303 302 299 295 291 287 286 285 284 281 278
154 149 157 156 204 356 330 307 303 311 329 319 327 327 330 320 319 317 304 299 310 309 304 308 317 307 305 304 302 300 302 304 301 300 298 295 290 284 277 276 276 277 278
152 154 167 167 169 50 357 333 315 327 320 301 295 296 315 309 314 310 296 302 307 303 302 302 302 299 297 299 305 306 298 296 296 296 296 300 301 294 284 275 273 277 278
158 169 174 170 152 111 55 331 310 312 299 292 279 296 308 306 305 298 298 299 300 298 298 298 300 302 301 298 304 304 298 290 292 294 299 304 302 302 301 296 284 274 277
171 172 169 168 157 152 137 266 257 268 269 269 272 305 303 300 294 299 297 296 295 297 298 298 301 301 304 307 305 308 308 305 295 304 302 298 300 307 305 302 297 289 282
174 167 168 158 170 185 171 253 281 285 287 299 321 312 293 289 289 290 290 290 294 296 295 298 299 304 306 304 288 293 302 305 308 299 296 295 300 300 297 297 293 286 279
167 147 151 165 186 191 194 240 277 287 289 292 290 281 287 292 297 296 291 293 294 292 292 298 308 301 301 303 300 279 274 284 297 305 303 296 299 301 305 305 304 299 289
149 146 157 172 193 194 202 234 256 269 275 285 290 291 296 296 294 293 293 296 294 291 292 297 301 298 296 295 299 299 295 290 283 289 299 305 305 301 300 300 298 292 287
143 148 161 181 199 195 205 230 244 264 281 293 297 300 298 293 290 292 298 298 294 292 295 297 298 299 295 294 297 297 296 294 294 288 289 296 300 300 298 294 290 287 281